Change the Weather History Date:

Friday, January 11, 2013

  Actual Average Record
Temperature  
Mean Temperature 33 °F 41 °F  
Max Temperature 41 °F 47 °F 55 °F (1983)
Min Temperature 25 °F 36 °F 21 °F (1993)
Degree Days  
Heating Degree Days 32 24  
Month to date heating degree days 264  
Since 1 July heating degree days 2742  
Cooling Degree Days 0 0  
Month to date cooling degree days 0  
Year to date cooling degree days 0  
Moisture  
Dew Point 27 °F    
Average Humidity 86    
Maximum Humidity 100    
Minimum Humidity 45    
Precipitation  
Precipitation 0.00 in 0.50 in 4.59 in (2010)
Month to date precipitation 5.27  
Year to date precipitation 5.27  
Sea Level Pressure  
Sea Level Pressure 30.24 in    
Wind  
Wind Speed 4 mph (NE)    
Max Wind Speed 13 mph    
Max Gust Speed 16 mph    
Visibility 5 miles    
Events Fog    
T = Trace of Precipitation, MM = Missing Value Source: NWS Daily Summary

Daily Weather History Graph

Daily Weather History Graph

Search for Another Location

Airport or City:

Trip Planner

Search our weather history database for the weather conditions in past years. The results will help you decide how hot, cold, wet, or windy it might be!

Date:

Astronomy

Jan. 11, 2013 Rise Set
Actual Time 8:05 AM PST 4:48 PM PST
Civil Twilight 7:29 AM PST 5:23 PM PST
Nautical Twilight 6:50 AM PST 6:02 PM PST
Astronomical Twilight 6:13 AM PST 6:39 PM PST
Moon 7:39 AM PST (1/11) 5:17 PM PST (1/11)
Length of Visible Light 9h 53m
Length of Day
8h 42m
New Moon, 0% of the Moon is Illuminated
Jan 11
New Moon
Jan 18
First Quarter
Jan 26
Full
Feb 3
Last Quarter
Feb 9
New

Hourly Weather History & Observations

Time (PST) Temp. Windchill Dew Point Humidity Pressure Visibility Wind Dir Wind Speed Gust Speed Precip Events Conditions
12:06 AM 28.4 °F - 26.6 °F 93% 30.13 in 2.5 mi Calm Calm - N/A   Partly Cloudy
12:10 AM 26.6 °F - 26.6 °F 100% 30.13 in 1.2 mi Calm Calm - N/A   Scattered Clouds
12:17 AM 26.6 °F - 26.6 °F 100% 30.14 in 1.0 mi Calm Calm - N/A   Mist
12:26 AM 26.6 °F - 26.6 °F 100% 30.14 in 0.5 mi Calm Calm - N/A Fog Light Freezing Fog
12:33 AM 26.6 °F - 26.6 °F 100% 30.14 in 1.8 mi Calm Calm - N/A   Partly Cloudy
12:35 AM 26.6 °F 22.6 °F 26.6 °F 100% 30.14 in 4.0 mi ENE 3.5 mph - N/A   Partly Cloudy
12:53 AM 26.1 °F - 25.0 °F 96% 30.15 in 6.0 mi Calm Calm - N/A   Clear
1:53 AM 28.0 °F 24.2 °F 27.0 °F 96% 30.16 in 6.0 mi NE 3.5 mph - N/A   Clear
2:53 AM 27.0 °F - 26.1 °F 96% 30.17 in 6.0 mi Calm Calm - N/A   Clear
3:53 AM 28.0 °F 21.7 °F 27.0 °F 96% 30.18 in 6.0 mi North 5.8 mph - N/A   Clear
4:53 AM 27.0 °F - 27.0 °F 100% 30.18 in 6.0 mi Calm Calm - N/A   Clear
5:53 AM 26.1 °F - 25.0 °F 96% 30.19 in 6.0 mi Calm Calm - N/A   Clear
6:53 AM 27.0 °F 21.6 °F 26.1 °F 96% 30.22 in 6.0 mi NNW 4.6 mph - N/A   Clear
7:53 AM 28.0 °F 21.7 °F 27.0 °F 96% 30.25 in 6.0 mi North 5.8 mph - N/A   Clear
8:53 AM 30.0 °F 24.1 °F 28.0 °F 92% 30.27 in 5.0 mi North 5.8 mph - N/A   Clear
9:53 AM 33.1 °F 30.0 °F 28.9 °F 85% 30.29 in 5.0 mi Variable 3.5 mph - N/A   Clear
10:53 AM 37.0 °F 32.4 °F 28.0 °F 70% 30.30 in 5.0 mi North 5.8 mph - N/A   Haze
11:53 AM 39.2 °F 33.6 °F 23.0 °F 52% 30.28 in 5.0 mi NNE 8.1 mph - N/A   Haze
12:53 PM 39.9 °F 33.4 °F 21.9 °F 49% 30.28 in 5.0 mi ENE 10.4 mph - N/A   Haze
1:53 PM 41.0 °F 36.4 °F 21.0 °F 45% 30.28 in 5.0 mi NE 6.9 mph - N/A   Haze
2:53 PM 39.9 °F - 21.0 °F 47% 30.29 in 5.0 mi Calm Calm - N/A   Haze
3:53 PM 35.1 °F - 28.9 °F 78% 30.30 in 5.0 mi Calm Calm - N/A   Haze
4:53 PM 32.0 °F 28.7 °F 28.9 °F 88% 30.30 in 5.0 mi ENE 3.5 mph - N/A   Clear
5:53 PM 30.9 °F - 28.9 °F 92% 30.31 in 6.0 mi Calm Calm - N/A   Clear
6:53 PM 30.9 °F 27.5 °F 28.0 °F 89% 30.31 in 6.0 mi ENE 3.5 mph - N/A   Mostly Cloudy
7:38 PM 30.2 °F 24.3 °F 26.6 °F 86% 30.30 in 6.0 mi ENE 5.8 mph - N/A   Haze
7:53 PM 30.9 °F 25.2 °F 27.0 °F 85% 30.30 in 6.0 mi East 5.8 mph - N/A   Partly Cloudy
8:53 PM 30.0 °F 25.2 °F 27.0 °F 88% 30.30 in 6.0 mi ENE 4.6 mph - N/A   Clear
9:53 PM 30.0 °F 25.2 °F 27.0 °F 88% 30.30 in 6.0 mi ENE 4.6 mph - N/A   Clear
10:53 PM 30.0 °F 25.2 °F 27.0 °F 88% 30.30 in 6.0 mi East 4.6 mph - N/A   Clear
11:53 PM 28.9 °F 25.2 °F 27.0 °F 92% 30.31 in 6.0 mi ENE 3.5 mph - N/A   Partly Cloudy